When you browse on this site, cookies collect data to enhance your experience and personalize the content and advertising you see.
Visit our Privacy Policy to learn more. By continuing to use the site, you agree to this use of cookies and data.
  • In United Kingdom
  • List of Countries
  • For 7 days
  • Water Temperature
  • Weather Map
  • Weather Widgets
  • user-avatar
    Login

    Hourly Weather Igls

    Today, 18 August, Sunday

    Time Temperature Precipitation Wind Pressure Humidity
    00:00 +18°C° 0 mm 1 mps 685 mmHg 83%
    01:00 +17°C° 0 mm 2 mps 685 mmHg 83%
    02:00 +17°C° 0 mm 2 mps 685 mmHg 82%
    03:00 +17°C° 0 mm 2 mps 685 mmHg 82%
    04:00 +17°C° 0 mm 2 mps 685 mmHg 81%
    05:00 +18°C° 0 mm 2 mps 685 mmHg 80%
    06:00 +19°C° 0 mm 2 mps 685 mmHg 78%
    07:00 +22°C° 0 mm 1 mps 685 mmHg 76%
    08:00 +24°C° 0 mm 1 mps 686 mmHg 68%
    09:00 +26°C° 0 mm 1 mps 686 mmHg 60%
    10:00 +28°C° 0 mm 1 mps 686 mmHg 53%
    11:00 +29°C° 0 mm 1 mps 686 mmHg 49%
    12:00 +30°C° 0 mm 1 mps 686 mmHg 46%
    13:00 +31°C° 0 mm 2 mps 686 mmHg 42%
    14:00 +30°C° 0 mm 2 mps 686 mmHg 47%
    15:00 +28°C° 0 mm 2 mps 685 mmHg 52%
    16:00 +27°C° 0 mm 2 mps 685 mmHg 57%
    17:00 +25°C° 0.1 mm 1 mps 685 mmHg 65%
    18:00 +24°C° 0.1 mm 1 mps 685 mmHg 72%
    19:00 +22°C° 0.1 mm 1 mps 685 mmHg 80%
    20:00 +21°C° 0.2 mm 1 mps 685 mmHg 83%
    21:00 +20°C° 0.2 mm 1 mps 685 mmHg 86%
    22:00 +18°C° 0.2 mm 2 mps 685 mmHg 90%
    23:00 +19°C° 0.1 mm 1 mps 685 mmHg 92%

    Tomorrow, 19 August, Monday

    Time Temperature Precipitation Wind Pressure Humidity
    00:00 +18°C° 0.1 mm 1 mps 685 mmHg 94%
    01:00 +18°C° 0.1 mm 1 mps 685 mmHg 96%
    02:00 +18°C° 0.2 mm 1 mps 685 mmHg 95%
    03:00 +19°C° 0.2 mm 1 mps 685 mmHg 95%
    04:00 +19°C° 0.2 mm 1 mps 685 mmHg 95%
    05:00 +19°C° 0.5 mm 1 mps 686 mmHg 94%
    06:00 +19°C° 0.5 mm 1 mps 686 mmHg 94%
    07:00 +19°C° 0.5 mm 1 mps 686 mmHg 94%
    08:00 +20°C° 0.4 mm 1 mps 687 mmHg 90%
    09:00 +21°C° 0.4 mm 1 mps 687 mmHg 87%
    10:00 +22°C° 0.4 mm 1 mps 687 mmHg 83%
    11:00 +23°C° 0.7 mm 1 mps 687 mmHg 78%
    12:00 +24°C° 0.7 mm 1 mps 688 mmHg 73%
    13:00 +25°C° 0.7 mm 1 mps 688 mmHg 68%
    14:00 +24°C° 1 mm 1 mps 687 mmHg 73%
    15:00 +23°C° 1 mm 1 mps 687 mmHg 77%
    16:00 +22°C° 1 mm 1 mps 687 mmHg 82%
    17:00 +21°C° 0.8 mm 1 mps 687 mmHg 86%
    18:00 +20°C° 0.8 mm 1 mps 687 mmHg 90%
    19:00 +18°C° 0.8 mm 0 mps 687 mmHg 95%
    20:00 +17°C° 0.4 mm 0 mps 687 mmHg 94%
    21:00 +17°C° 0.4 mm 0 mps 687 mmHg 94%
    22:00 +17°C° 0.4 mm 0 mps 688 mmHg 94%
    23:00 +17°C° 0.2 mm 0 mps 688 mmHg 94%

    Day after tomorrow, 20 August, Tuesday

    Time Temperature Precipitation Wind Pressure Humidity
    00:00 +19°C° 0.2 mm 1 mps 688 mmHg 93%
    01:00 +19°C° 0.2 mm 1 mps 688 mmHg 93%
    02:00 +18°C° 0.4 mm 1 mps 687 mmHg 93%
    03:00 +18°C° 0.4 mm 1 mps 687 mmHg 93%
    04:00 +18°C° 0.4 mm 1 mps 687 mmHg 93%
    05:00 +19°C° 0.1 mm 1 mps 687 mmHg 92%
    06:00 +19°C° 0.1 mm 1 mps 688 mmHg 90%
    07:00 +20°C° 0.1 mm 1 mps 688 mmHg 89%
    08:00 +21°C° 0.2 mm 1 mps 688 mmHg 84%
    09:00 +22°C° 0.2 mm 1 mps 688 mmHg 78%
    10:00 +24°C° 0.2 mm 2 mps 688 mmHg 73%
    11:00 +24°C° 0.6 mm 2 mps 688 mmHg 74%
    12:00 +24°C° 0.6 mm 2 mps 688 mmHg 75%
    13:00 +25°C° 0.6 mm 2 mps 688 mmHg 76%
    14:00 +24°C° 0.9 mm 2 mps 688 mmHg 79%
    15:00 +23°C° 0.9 mm 2 mps 688 mmHg 82%
    16:00 +23°C° 0.9 mm 2 mps 687 mmHg 84%
    17:00 +21°C° 0.6 mm 2 mps 688 mmHg 88%
    18:00 +19°C° 0.6 mm 2 mps 688 mmHg 92%
    19:00 +19°C° 0.6 mm 1 mps 688 mmHg 96%
    20:00 +18°C° 0.5 mm 1 mps 688 mmHg 97%
    21:00 +16°C° 0.5 mm 2 mps 689 mmHg 98%
    22:00 +16°C° 0.5 mm 2 mps 689 mmHg 98%
    23:00 +15°C° 0.2 mm 2 mps 689 mmHg 98%

    21 August, Wednesday

    Time Temperature Precipitation Wind Pressure Humidity
    00:00 +15°C° 0.2 mm 2 mps 689 mmHg 98%
    01:00 +15°C° 0.2 mm 2 mps 689 mmHg 98%
    02:00 +14°C° 0.4 mm 2 mps 689 mmHg 98%
    03:00 +14°C° 0.4 mm 2 mps 689 mmHg 98%
    04:00 +14°C° 0.4 mm 2 mps 689 mmHg 98%
    05:00 +14°C° 0.2 mm 2 mps 689 mmHg 98%
    06:00 +13°C° 0.2 mm 2 mps 689 mmHg 98%
    07:00 +13°C° 0.2 mm 1 mps 689 mmHg 98%
    08:00 +14°C° 1.1 mm 1 mps 690 mmHg 95%
    09:00 +15°C° 1.1 mm 1 mps 690 mmHg 93%
    10:00 +15°C° 1.1 mm 1 mps 690 mmHg 91%
    11:00 +18°C° 0 mm 1 mps 690 mmHg 86%
    12:00 +19°C° 0 mm 1 mps 690 mmHg 81%
    13:00 +19°C° 0 mm 2 mps 690 mmHg 75%
    14:00 +19°C° 0.1 mm 2 mps 690 mmHg 76%
    15:00 +19°C° 0.1 mm 2 mps 689 mmHg 76%
    16:00 +19°C° 0.1 mm 2 mps 689 mmHg 76%
    17:00 +19°C° 0.1 mm 1 mps 689 mmHg 81%
    18:00 +18°C° 0.1 mm 1 mps 689 mmHg 86%
    19:00 +16°C° 0.1 mm 1 mps 689 mmHg 91%
    20:00 +16°C° 0.1 mm 1 mps 689 mmHg 93%
    21:00 +15°C° 0.1 mm 1 mps 689 mmHg 94%
    22:00 +13°C° 0.1 mm 0 mps 689 mmHg 95%
    23:00 +13°C° 0 mm 0 mps 689 mmHg 95%

    22 August, Thursday

    Time Temperature Precipitation Wind Pressure Humidity
    00:00 +13°C° 0 mm 0 mps 689 mmHg 94%
    01:00 +13°C° 0 mm 0 mps 689 mmHg 94%
    02:00 +13°C° 0 mm 0 mps 689 mmHg 94%
    03:00 +13°C° 0 mm 0 mps 689 mmHg 93%
    04:00 +13°C° 0 mm 0 mps 688 mmHg 93%
    05:00 +14°C° 0 mm 0 mps 689 mmHg 90%
    06:00 +15°C° 0 mm 0 mps 689 mmHg 87%
    07:00 +16°C° 0 mm 0 mps 689 mmHg 84%
    08:00 +18°C° 0 mm 0 mps 690 mmHg 78%
    09:00 +22°C° 0 mm 1 mps 690 mmHg 71%
    10:00 +23°C° 0 mm 1 mps 691 mmHg 64%
    11:00 +24°C° 0.2 mm 1 mps 691 mmHg 62%
    12:00 +25°C° 0.2 mm 1 mps 691 mmHg 60%
    13:00 +26°C° 0.2 mm 2 mps 690 mmHg 58%
    14:00 +25°C° 0.6 mm 2 mps 690 mmHg 64%
    15:00 +24°C° 0.6 mm 2 mps 690 mmHg 71%
    16:00 +23°C° 0.6 mm 2 mps 690 mmHg 77%
    17:00 +21°C° 0.3 mm 2 mps 690 mmHg 84%
    18:00 +20°C° 0.3 mm 1 mps 690 mmHg 90%
    19:00 +19°C° 0.3 mm 1 mps 690 mmHg 96%
    20:00 +18°C° 0 mm 1 mps 690 mmHg 96%
    21:00 +18°C° 0 mm 1 mps 690 mmHg 97%
    22:00 +16°C° 0 mm 1 mps 690 mmHg 97%
    23:00 +15°C° 0 mm 0 mps 690 mmHg 96%

    23 August, Friday

    Time Temperature Precipitation Wind Pressure Humidity
    00:00 +15°C° 0 mm 0 mps 690 mmHg 94%
    01:00 +15°C° 0 mm 0 mps 690 mmHg 93%
    02:00 +14°C° 0 mm 0 mps 690 mmHg 93%
    03:00 +13°C° 0 mm 0 mps 689 mmHg 92%
    04:00 +13°C° 0 mm 0 mps 689 mmHg 91%
    05:00 +14°C° 0 mm 0 mps 689 mmHg 89%
    06:00 +15°C° 0 mm 0 mps 689 mmHg 86%
    07:00 +17°C° 0 mm 0 mps 690 mmHg 83%
    08:00 +21°C° 0 mm 1 mps 690 mmHg 74%
    09:00 +23°C° 0 mm 1 mps 690 mmHg 65%
    10:00 +26°C° 0 mm 1 mps 691 mmHg 56%
    11:00 +27°C° 0.2 mm 1 mps 691 mmHg 53%
    12:00 +27°C° 0.2 mm 1 mps 690 mmHg 51%
    13:00 +28°C° 0.2 mm 1 mps 690 mmHg 48%
    14:00 +28°C° 0.5 mm 1 mps 690 mmHg 52%
    15:00 +27°C° 0.5 mm 1 mps 690 mmHg 56%
    16:00 +27°C° 0.5 mm 1 mps 689 mmHg 59%
    17:00 +24°C° 1.1 mm 1 mps 689 mmHg 70%
    18:00 +22°C° 1.1 mm 1 mps 689 mmHg 80%
    19:00 +20°C° 1.1 mm 1 mps 688 mmHg 90%
    20:00 +19°C° 0 mm 1 mps 688 mmHg 90%
    21:00 +19°C° 0 mm 1 mps 689 mmHg 89%
    22:00 +18°C° 0 mm 1 mps 689 mmHg 89%
    23:00 +18°C° 0 mm 1 mps 689 mmHg 88%
    Show more